This is the latest recevied weather packets stored in our database for station/object VA3XLT-1. If no packets are shown the sender has not sent any weather packets the latest 10 day(s).
| Time | Temp. | Humidity | Pressure | Rain* | Wind** | Luminosity | Snow |
|---|---|---|---|---|---|---|---|
| 1777913560 | 21.67° C | 49% | 1004.2 hPa | 0 mm | - | - | - |
| 1777913260 | 21.67° C | 48% | 1004.2 hPa | 0 mm | - | - | - |
| 1777912960 | 21.11° C | 47% | 1004.3 hPa | 0 mm | - | - | - |
| 1777912660 | 20.56° C | 49% | 1004.4 hPa | 0 mm | - | - | - |
| 1777912360 | 21.11° C | 49% | 1004.5 hPa | 0 mm | - | - | - |
| 1777912060 | 21.11° C | 47% | 1004.5 hPa | 0 mm | - | - | - |
| 1777911760 | 20.56° C | 50% | 1004.6 hPa | 0 mm | - | - | - |
| 1777911460 | 19.44° C | 52% | 1004.5 hPa | 0 mm | - | - | - |
| 1777911160 | 20° C | 52% | 1004.6 hPa | 0 mm | - | - | - |
| 1777910860 | 20° C | 54% | 1004.7 hPa | 0 mm | - | - | - |
| 1777910560 | 20° C | 52% | 1004.7 hPa | 0 mm | - | - | - |
| 1777910260 | 20° C | 51% | 1004.7 hPa | 0 mm | - | - | - |
| 1777909960 | 20° C | 52% | 1004.8 hPa | 0 mm | - | - | - |
| 1777909660 | 19.44° C | 52% | 1004.8 hPa | 0 mm | - | - | - |
| 1777909360 | 20° C | 53% | 1004.7 hPa | 0 mm | - | - | - |
| 1777909060 | 19.44° C | 56% | 1004.8 hPa | 0 mm | - | - | - |
| 1777908760 | 18.89° C | 55% | 1004.8 hPa | 0 mm | - | - | - |
| 1777908460 | 18.89° C | 55% | 1004.8 hPa | 0 mm | - | - | - |
| 1777908160 | 18.33° C | 56% | 1004.8 hPa | 0 mm | - | - | - |
| 1777907860 | 18.33° C | 58% | 1004.8 hPa | 0 mm | - | - | - |
| 1777907560 | 18.33° C | 57% | 1004.9 hPa | 0 mm | - | - | - |
| 1777907260 | 17.78° C | 59% | 1004.8 hPa | 0 mm | - | - | - |
| 1777906960 | 17.78° C | 58% | 1004.8 hPa | 0 mm | - | - | - |
| 1777906660 | 17.22° C | 60% | 1004.8 hPa | 0 mm | - | - | - |
| 1777906360 | 17.22° C | 60% | 1004.8 hPa | 0 mm | - | - | - |
* Rain latest hour (hover to see other rain measurements)
** Current wind speed in m/s (hover to see current wind gust speed)